Flag for Colombia Weather past 2 weeks in Medellin, Colombia

Now
59 °F

Partly cloudy.


Feels Like: 59 °F
Forecast: 62 / 88 °F
Wind: No wind

Location: Rionegro / J. M. Cordova

Current Time: Sep 3, 2015 at 4:05:02 AM

Latest Report: Sep 3, 2015 at 3:00 AM


Visibility: 5 mi

Pressure: 30.30 "Hg (25.43 "Hg at 1479m altitude)

Humidity: 88%

Dew point: 55 °F

Location of MedellinLocation

Historic Weather in Medellin — Graph

°F

Medellin temperature yesterday

Maximum temperature yesterday: 73 °F (at 1:00 PM)
Minimum temperature yesterday: 54 °F (at 6:00 AM)
Average temperature yesterday: 63 °F

Past Weeks' High & Low Weather Summary

 TemperatureHumidityPressure
High84 °F (Aug 22, 1:00 PM)100% (Aug 19, 6:00 AM)30.39 "Hg (Aug 19, 6:00 AM)
Low52 °F (Aug 19, 6:00 AM)37% (Aug 22, 1:00 PM)30.01 "Hg (Aug 23, 10:00 AM)
Average64 °F76%30.28 "Hg
* Reported Aug 19 3:00 AM — Sep 3 3:00 AM, Medellin, Weather by CustomWeather, © 2015

Note: Actual official high and low records may vary slightly from our data, if they occured in-between our weather recording intervals... More about our weather records

Advertising

Medellin weather history for previous 24 hours

 ConditionsComfort  
Time TempWeatherWind HumidityBarometerVisibility
3:00 AM
Thu, Sep 3
59 °FPartly cloudy.No wind88%30.30 "Hg5 mi
2:00 AM59 °FPartly cloudy.5 mph88%30.30 "Hg5 mi
1:00 AM61 °FPartly cloudy.3 mph83%30.32 "Hg4 mi
12:00 AM61 °FPartly cloudy.3 mph83%30.32 "Hg5 mi
11:00 PM
Wed, Sep 2
61 °FPartly cloudy.3 mph83%30.33 "HgN/A
10:00 PM61 °FPassing clouds.5 mph83%30.32 "HgN/A
9:00 PM63 °FPassing clouds.5 mph73%30.31 "HgN/A
8:00 PM63 °FPassing clouds.5 mph77%30.29 "HgN/A
7:00 PM64 °FPassing clouds.7 mph68%30.26 "HgN/A
6:00 PM68 °FScattered clouds.9 mph56%30.24 "HgN/A
5:00 PM72 °FPassing clouds.9 mph47%30.23 "HgN/A
4:00 PM72 °FScattered clouds.12 mph44%30.24 "HgN/A
3:00 PM72 °FPartly sunny.14 mph50%30.25 "HgN/A
2:00 PM73 °FPartly sunny.12 mph44%30.28 "HgN/A
1:00 PM73 °FPartly sunny.12 mph41%30.32 "HgN/A
12:00 PM70 °FPartly sunny.12 mph57%30.36 "HgN/A
11:00 AM70 °FPartly sunny.9 mph60%30.38 "HgN/A
10:00 AM68 °FPartly sunny.8 mph60%30.39 "HgN/A
9:00 AM63 °FBroken clouds.No wind83%30.38 "HgN/A
8:00 AM55 °FFog.No wind94%30.35 "Hg2 mi
7:00 AM54 °FFog.No wind100%30.34 "Hg1 mi
6:00 AM54 °FFog.No wind100%30.35 "Hg1 mi
5:00 AM55 °FPassing clouds.No wind94%30.34 "Hg2 mi
4:00 AM55 °FPassing clouds.No wind100%30.33 "Hg3 mi
Weather by CustomWeather, © 2015

See weather overviewHow to use our weather pages